Skip Page Navigation
NASA JPL Caltech
NASA Logo - Jet Propulsion Laboratory + View the NASA Portal
+ Near-Earth Object (NEO) Program
Search JPL
JPL Home Earth Solar System Stars & Galaxies Technology
JPL Solar System Dynamics
BODIES ORBITS EPHEMERIDES TOOLS PHYSICAL DATA DISCOVERY FAQ SITE MAP
JPL Small-Body Database Browser
Search: [ help ]  
12435 Sudachi (1996 BX)
Classification: Main-belt Asteroid          SPK-ID: 2012435
Ephemeris | Orbit Diagram | Orbital Elements | Physical Parameters | Discovery Circumstances ]

[ show orbit diagram ]
Orbital Elements at Epoch 2456800.5 (2014-May-23.0) TDB
Reference: JPL 5 (heliocentric ecliptic J2000)
 Element Value Uncertainty (1-sigma)   Units 
e .01888991626299847 6.3319e-08  
a 2.894393219390335 3.0866e-08 AU
q 2.839718373843861 1.7603e-07 AU
i 3.266527805986593 6.2821e-06 deg
node 91.09416512879417 0.00011121 deg
peri 108.1757841088429 0.00020413 deg
M 184.9745469908476 0.00017343 deg
tp 2457674.946884249117
(2016-Oct-13.44688425)
0.00086935 JED
period 1798.600563046225
4.92
2.877e-05
7.877e-08
d
yr
n .2001556139792824 3.2017e-09 deg/d
Q 2.949068064936809 3.1449e-08 AU
  Orbit Determination Parameters
   # obs. used (total)      1125  
   data-arc span      6504 days (17.81 yr)  
   first obs. used      1996-01-17  
   last obs. used      2013-11-07  
   planetary ephem.      DE431  
   SB-pert. ephem.      SB431-BIG16  
   condition code      0  
   fit RMS      .53714  
   data source      ORB  
   producer      Otto Matic  
   solution date      2013-Nov-21 05:03:10  

Additional Information
 Earth MOID = 1.83733 AU 
 T_jup = 3.287 
[ show covariance matrix ]

Ephemeris | Orbit Diagram | Orbital Elements | Physical Parameters | Discovery Circumstances ]

Physical Parameter Table
Parameter Symbol Value Units Sigma Reference Notes
absolute magnitude H 13.3 mag n/a MPO267756  

12435 Sudachi           Discovered 1996 Jan. 17 by K. Endate and K. Watanabe at Kitami.
Sudachi (Citrus sudachi) is a small, round, green citrus fruit that is a specialty of Tokushima prefecture. The name was selected among proposals by children who attended the Fureai Space Festival, held in Anan city on the 2008 Japanese Space Day.
NOTE: some special characters may not display properly (any characters within {} are an attempt to place the proper accent above a character)
Reference: 20090409/MPCPages.arcLast Updated: 2009-04-10

Alternate Designations
 1996 BX = 1997 GG6 
Ephemeris | Orbit Diagram | Orbital Elements | Physical Parameters | Discovery Circumstances ]
ABOUT SSD CREDITS/AWARDS PRIVACY/COPYRIGHT GLOSSARY LINKS
FirstGov 2014-Apr-24 16:26 UT
(server date/time)  
NASA Home Page
Site Manager:   Donald K. Yeomans
Webmaster  Alan B. Chamberlin